TimeEST,TemperatureF,Dew PointF,Humidity,Sea Level PressureIn,VisibilityMPH,Wind Direction,Wind SpeedMPH,Gust SpeedMPH,PrecipitationIn,Events,Conditions,WindDirDegrees,DateUTC
12:35 AM,66.2,62.6,88,29.79,7.0,South,10.4,-,N/A,,Mostly Cloudy,190,2012-12-11 05:35:00
12:54 AM,66.9,64.0,90,29.78,7.0,SSW,9.2,-,N/A,,Mostly Cloudy,200,2012-12-11 05:54:00
1:54 AM,69.1,64.9,87,29.79,9.0,SW,9.2,-,N/A,,Mostly Cloudy,220,2012-12-11 06:54:00
2:54 AM,70.0,66.9,90,29.79,9.0,SSW,13.8,18.4,N/A,,Mostly Cloudy,210,2012-12-11 07:54:00
3:05 AM,69.8,66.2,88,29.80,9.0,SW,12.7,-,0.00,Rain,Light Rain,230,2012-12-11 08:05:00
3:54 AM,69.1,66.0,90,29.79,7.0,SSW,11.5,-,0.01,Rain,Light Rain,200,2012-12-11 08:54:00
4:00 AM,69.8,66.2,88,29.80,6.0,SSW,8.1,-,0.00,Rain,Light Rain,210,2012-12-11 09:00:00
5:54 AM,69.1,66.0,90,29.81,8.0,SW,11.5,-,N/A,,Mostly Cloudy,230,2012-12-11 10:54:00
7:08 AM,66.2,64.4,94,29.85,7.0,SW,8.1,-,N/A,,Mostly Cloudy,220,2012-12-11 12:08:00
7:36 AM,66.2,64.4,94,29.86,6.0,SW,8.1,-,N/A,,Mostly Cloudy,220,2012-12-11 12:36:00
7:54 AM,66.9,64.0,90,29.86,6.0,WSW,6.9,-,N/A,,Mostly Cloudy,240,2012-12-11 12:54:00
8:23 AM,68.0,64.4,88,29.88,7.0,WSW,8.1,-,N/A,,Scattered Clouds,250,2012-12-11 13:23:00
8:54 AM,68.0,64.9,90,29.89,7.0,WSW,6.9,-,N/A,,Mostly Cloudy,240,2012-12-11 13:54:00
9:40 AM,69.8,64.4,83,29.91,10.0,West,12.7,-,N/A,,Mostly Cloudy,260,2012-12-11 14:40:00
9:54 AM,70.0,63.0,78,29.92,10.0,West,11.5,-,N/A,,Mostly Cloudy,260,2012-12-11 14:54:00
10:02 AM,69.8,62.6,78,29.93,10.0,West,15.0,19.6,N/A,,Mostly Cloudy,280,2012-12-11 15:02:00
10:54 AM,70.0,61.0,73,29.92,10.0,West,12.7,18.4,N/A,,Mostly Cloudy,280,2012-12-11 15:54:00
11:54 AM,69.1,60.1,73,29.92,10.0,West,10.4,-,N/A,,Mostly Cloudy,280,2012-12-11 16:54:00
12:54 PM,72.0,59.0,64,29.92,10.0,WNW,10.4,-,N/A,,Mostly Cloudy,290,2012-12-11 17:54:00
1:07 PM,71.6,57.2,60,29.93,10.0,West,10.4,-,N/A,,Mostly Cloudy,270,2012-12-11 18:07:00
1:34 PM,71.6,57.2,60,29.93,10.0,WNW,11.5,-,N/A,,Mostly Cloudy,300,2012-12-11 18:34:00
1:54 PM,71.1,57.9,63,29.92,10.0,NW,10.4,-,N/A,,Mostly Cloudy,320,2012-12-11 18:54:00
2:19 PM,71.6,57.2,60,29.93,10.0,WNW,8.1,-,N/A,,Mostly Cloudy,300,2012-12-11 19:19:00
2:54 PM,70.0,57.0,63,29.94,10.0,WNW,5.8,-,N/A,,Mostly Cloudy,290,2012-12-11 19:54:00
3:54 PM,68.0,57.9,70,29.96,10.0,Calm,Calm,-,N/A,,Overcast,0,2012-12-11 20:54:00
4:54 PM,66.0,59.0,78,29.98,10.0,Calm,Calm,-,N/A,,Overcast,0,2012-12-11 21:54:00
5:54 PM,57.9,55.0,90,30.02,4.0,ENE,11.5,-,0.05,Rain,Rain,70,2012-12-11 22:54:00
6:21 PM,57.2,53.6,88,30.06,7.0,ENE,8.1,-,0.01,Rain,Light Rain,60,2012-12-11 23:21:00
6:29 PM,57.2,53.6,88,30.06,6.0,ENE,8.1,-,0.02,Rain,Rain,70,2012-12-11 23:29:00
6:54 PM,55.0,52.0,89,30.06,4.0,NE,9.2,-,0.06,Rain,Rain,50,2012-12-11 23:54:00
7:54 PM,54.0,52.0,93,30.05,5.0,East,10.4,-,0.11,Rain,Rain,80,2012-12-12 00:54:00
8:08 PM,53.6,51.8,94,30.07,8.0,ENE,6.9,-,0.00,Rain,Light Rain,60,2012-12-12 01:08:00
8:54 PM,54.0,51.1,90,30.09,10.0,NE,10.4,-,0.01,,Overcast,40,2012-12-12 01:54:00
9:54 PM,53.1,50.0,89,30.09,10.0,NE,12.7,-,N/A,,Overcast,40,2012-12-12 02:54:00
10:54 PM,53.1,50.0,89,30.11,8.0,NNE,9.2,-,N/A,,Overcast,30,2012-12-12 03:54:00
11:54 PM,53.1,50.0,89,30.12,8.0,NE,10.4,-,N/A,,Overcast,40,2012-12-12 04:54:00